| time (UTC) | temp F | wind direction | speed knots | gust knots | rain 1hr in | rain 24hr in | rain mn in | humidity % | barometer mb |
| 20260504044550 | 39 | 336 | 3.5 | 8.7 | 0.00 | 0.01 | 0.01 | 69 | 1007.9 |
| 20260504043045 | 39 | 280 | 1.7 | 9.6 | 0.00 | 0.01 | 0.01 | 73 | 1007.4 |
| 20260504041545 | 39 | 244 | 1.7 | 9.6 | 0.00 | 0.01 | 0.01 | 74 | 1007.3 |
| 20260504040047 | 39 | 267 | 5.2 | 12.2 | 0.00 | 0.01 | 0.01 | 73 | 1007.3 |
| 20260504034545 | 39 | 275 | 4.3 | 10.4 | 0.00 | 0.01 | 0.01 | 74 | 1007.2 |
| 20260504033051 | 40 | 275 | 0.0 | 13.0 | 0.00 | 0.01 | 0.01 | 71 | 1007.2 |
| 20260504031545 | 40 | 269 | 1.7 | 9.6 | 0.00 | 0.01 | 0.01 | 72 | 1006.7 |
| 20260504030049 | 38 | 214 | 4.3 | 18.2 | 0.00 | 0.01 | 0.01 | 79 | 1006.5 |
| 20260504024555 | 38 | 249 | 2.6 | 16.5 | 0.00 | 0.01 | 0.01 | 80 | 1006.2 |
| 20260504023045 | 39 | 283 | 2.6 | 14.8 | 0.00 | 0.01 | 0.01 | 76 | 1006.4 |
| 20260504021551 | 38 | 282 | 4.3 | 20.0 | 0.01 | 0.01 | 0.01 | 80 | 1006.1 |
| 20260504020048 | 38 | 198 | 7.0 | 18.2 | 0.01 | 0.01 | 0.01 | 79 | 1006.3 |
| 20260504014541 | 38 | 179 | 3.5 | 13.0 | 0.01 | 0.01 | 0.01 | 82 | 1005.8 |
| 20260504013047 | 38 | 283 | 7.0 | 16.5 | 0.01 | 0.01 | 0.01 | 80 | 1006.5 |
| 20260504011540 | 40 | 221 | 1.7 | 5.2 | 0.00 | 0.00 | 0.00 | 73 | 1007.2 |
| 20260504010037 | 42 | 225 | 0.9 | 8.7 | 0.00 | 0.00 | 0.00 | 68 | 1007.6 |
| 20260504004543 | 45 | 239 | 0.9 | 12.2 | 0.00 | 0.00 | 0.00 | 58 | 1007.0 |
| 20260504003036 | 47 | 203 | 2.6 | 6.1 | 0.00 | 0.00 | 0.00 | 53 | 1006.7 |
| 20260504001537 | 48 | 260 | 2.6 | 13.9 | 0.00 | 0.00 | 0.00 | 51 | 1006.4 |
| 20260504000035 | 50 | 206 | 2.6 | 15.6 | 0.00 | 0.00 | 0.00 | 49 | 1006.3 |
| 20260503234537 | 50 | 286 | 0.9 | 9.6 | 0.00 | 0.00 | 0.00 | 52 | 1006.2 |
| 20260503233035 | 47 | 244 | 2.6 | 11.3 | 0.00 | 0.00 | 0.00 | 53 | 1006.3 |
| 20260503231535 | 47 | 268 | 2.6 | 10.4 | 0.00 | 0.00 | 0.00 | 53 | 1006.4 |
| 20260503230034 | 47 | 237 | 0.9 | 6.1 | 0.00 | 0.00 | 0.00 | 51 | 1006.4 |
| 20260503224535 | 47 | 205 | 0.9 | 5.2 | 0.00 | 0.00 | 0.00 | 50 | 1006.5 |
| 20260503223032 | 48 | 248 | 0.0 | 4.3 | 0.00 | 0.00 | 0.00 | 49 | 1006.9 |
| 20260503221533 | 47 | 53 | 0.0 | 1.7 | 0.00 | 0.00 | 0.00 | 51 | 1007.0 |
| 20260503220034 | 46 | 121 | 0.0 | 3.5 | 0.00 | 0.00 | 0.00 | 51 | 1006.8 |
| 20260503214530 | 47 | 148 | 3.5 | 8.7 | 0.00 | 0.00 | 0.00 | 51 | 1007.1 |
| 20260503213031 | 47 | 163 | 0.0 | 3.5 | 0.00 | 0.00 | 0.00 | 48 | 1007.3 |
| 20260503211537 | 47 | 165 | 0.0 | 1.7 | 0.00 | 0.00 | 0.00 | 48 | 1007.2 |
| 20260503210032 | 48 | 230 | 1.7 | 3.5 | 0.00 | 0.00 | 0.00 | 46 | 1007.3 |
| 20260503204532 | 49 | 37 | 0.9 | 8.7 | 0.00 | 0.00 | 0.00 | 45 | 1007.3 |
| 20260503203030 | 48 | 309 | 0.0 | 5.2 | 0.00 | 0.00 | 0.00 | 46 | 1007.2 |
| 20260503201530 | 47 | 242 | 0.9 | 6.1 | 0.00 | 0.00 | 0.00 | 45 | 1007.1 |
| 20260503200030 | 47 | 198 | 0.9 | 3.5 | 0.00 | 0.00 | 0.00 | 46 | 1007.4 |
| 20260503194533 | 46 | 144 | 0.0 | 7.0 | 0.00 | 0.00 | 0.00 | 48 | 1007.5 |
| 20260503193038 | 45 | 229 | 0.9 | 5.2 | 0.00 | 0.00 | 0.00 | 51 | 1007.3 |
| 20260503191528 | 45 | 199 | 0.9 | 7.0 | 0.00 | 0.00 | 0.00 | 54 | 1007.4 |
| 20260503190039 | 47 | 194 | 1.7 | 12.2 | 0.00 | 0.00 | 0.00 | 49 | 1007.1 |
| 20260503184527 | 48 | 245 | 4.3 | 14.8 | 0.00 | 0.00 | 0.00 | 46 | 1006.9 |
| 20260503183027 | 48 | 241 | 2.6 | 13.0 | 0.00 | 0.00 | 0.00 | 47 | 1006.8 |
| 20260503181527 | 48 | 269 | 1.7 | 11.3 | 0.00 | 0.00 | 0.00 | 47 | 1006.6 |
| 20260503180027 | 50 | 280 | 2.6 | 7.8 | 0.00 | 0.00 | 0.00 | 46 | 1006.5 |
| 20260503174528 | 54 | 267 | 0.9 | 4.3 | 0.00 | 0.00 | 0.00 | 41 | 1006.6 |
| 20260503173025 | 54 | 18 | 0.0 | 4.3 | 0.00 | 0.00 | 0.00 | 44 | 1006.7 |
| 20260503171524 | 52 | 138 | 1.7 | 6.1 | 0.00 | 0.00 | 0.00 | 45 | 1006.8 |
| 20260503081526 | 42 | 273 | 0.0 | 2.6 | 0.00 | 0.00 | 0.00 | 67 | 1008.2 |